Overview Statistics Trail Chart Weather Telemetry Raw packets
 

This is the latest recevied weather packets stored in our database for station/object KK7MLS-13. If no packets are shown the sender has not sent any weather packets the latest 10 day(s).

<< 17 18 19 20 21 22 23 >>
Time Temp. Humidity Pressure Rain* Wind** Luminosity Snow
1788564091 16.11° C 80% 1014.4 hPa 0 mm - 68 W/m² -
1788563786 16.67° C 83% 1014.4 hPa 0 mm - 69 W/m² -
1788563481 16.67° C 79% 1014.4 hPa 0 mm - 91 W/m² -
1788563174 17.22° C 78% 1014.4 hPa 0 mm - 101 W/m² -
1788562870 17.22° C 82% 1014.2 hPa 0 mm - 160 W/m² -
1788562567 17.22° C 80% 1014.3 hPa 0 mm - 160 W/m² -
1788562262 16.67° C 85% 1014.3 hPa 1.27 mm - 398 W/m² -
1788561957 16.11° C 89% 1014.4 hPa 1.27 mm - 395 W/m² -
1788561652 15.56° C 87% 1014.2 hPa 1.78 mm - 267 W/m² -
1788561351 15.56° C 85% 1014.2 hPa 3.05 mm - 212 W/m² -
1788561047 16.11° C 81% 1014.4 hPa 3.05 mm - 152 W/m² -
1788560742 17.22° C 79% 1014.5 hPa 3.56 mm - 118 W/m² -
1788560437 17.78° C 73% 1014.3 hPa 1.78 mm - 154 W/m² -
1788560133 17.78° C 70% 1014.1 hPa 0 mm - 162 W/m² -
1788559833 17.78° C 67% 1014 hPa 0 mm - 154 W/m² -
1788559532 17.78° C 67% 1014.2 hPa 0 mm - 214 W/m² -
1788559228 17.78° C 70% 1014 hPa 0 mm - 281 W/m² -
1788558928 17.78° C 72% 1014 hPa 0 mm - 259 W/m² -
1788558624 18.33° C 67% 1014 hPa 0 mm - 212 W/m² -
1788558319 19.44° C 64% 1014 hPa 0 mm - 212 W/m² -
1788558014 20° C 66% 1014 hPa 0 mm - 259 W/m² -
1788557712 20° C 67% 1013.9 hPa 0 mm - 276 W/m² -
1788557409 18.89° C 72% 1013.8 hPa 0 mm - 623 W/m² -
1788557108 18.33° C 73% 1013.8 hPa 0 mm - 759 W/m² -
1788556804 17.78° C 79% 1013.9 hPa 0 mm - 599 W/m² -

* Rain latest hour (hover to see other rain measurements)
** Current wind speed in m/s (hover to see current wind gust speed)